Zurück zum Katalog

THOR ABLESTAR DEB

AktivLEO
NORAD 13513·DEBRIS·🇺🇸 United States

Gestartet Jun 29, 1961 von Cape Canaveral Space Force Station

Loading…

Nächste Überflüge (nächste 24 Stunden)

TLE

AktuellSource: Space-Track

Epoche: Sep 14, 2026, 15:42 UTC

1 13513U 61015KW  26257.65431219  .00000602  00000-0  53776-3 0  9998
2 13513  65.6788 324.7816 0094607 177.8845 343.8055 13.89858075331595

Verfolge THOR ABLESTAR DEB in Echtzeit mit AllMySat

Download on the App Store